ROMMA est une association bénévole à but non lucratif. Votre soutien est indispensable : ADHERER à ROMMA ou FAIRE un DON

Le Versoud - (38, Isère)

Vallée du Grésivaudan (220 m)   Longitude: 05° 51' 44" E   Latitude: 45° 13' 06" N Station partenaire n°6
 

Détail journalier du     <<     >>

Température Humidité Pression Vent Dir Rafale Dir. rafale Ensol.
Heure (°C) (%) (hPa) (km/h) (km/h) (min)
01:00 25.980101500---0
02:00 25.282101500---0
03:00 24.682101500---0
04:00 23.783101500---0
05:00 23.185101500---0
06:00 22.786101600---0
07:00 22.987101600---0
08:00 26.370101600---55
09:00 27.767101700---60
10:00 28.961101702NNE60
11:00 31.156101703NNE60
12:00 32.153101603NNE60
13:00 33.153101603NNE15
14:00 33.950101505NNE0
15:00 34.748101506N15
16:00 35.550101402N10
17:00 32.862101408N10
18:00 35.64610141NE15NE40
19:00 35.43510155SSE23S60
20:00 31.53710165S37SSE30
21:00 28.34610173---32O0
22:00 26.7531017015SSO0
23:00 27.34710192---32SE0
minuit 23.66210182---21N0

Graphique du 30-06-2019

 

Serveur OMMA